Weather History for Mountain Home, ID

Change the Weather History Date:

Sunday, April 21, 2013

  Actual Average Record
Temperature  
Mean Temperature 50 °F 51 °F  
Max Temperature 66 °F 64 °F 89 °F (1994)
Min Temperature 34 °F 36 °F 15 °F (1927)
Degree Days  
Heating Degree Days 15 15  
Month to date heating degree days 362 356  
Cooling Degree Days 0 0  
Month to date cooling degree days 0 0  
Moisture  
Dew Point 28 °F    
Average Humidity 42    
Maximum Humidity 78    
Minimum Humidity 23    
Precipitation  
Precipitation 0.00 in 0.03 in 0.35 in (1996)
Month to date precipitation 0.42 0.73  
Sea Level Pressure  
Sea Level Pressure 30.06 in    
Wind  
Wind Speed 7 mph (NW)    
Max Wind Speed 21 mph    
Max Gust Speed 23 mph    
Visibility 10 miles    
Events      
T = Trace of Precipitation, MM = Missing Value Source: NWS Daily Summary

Daily Weather History Graph

Daily Weather History Graph

Search for Another Location

Airport:

Trip Planner

Search our weather history database for the weather conditions in past years. The results will help you decide how hot, cold, wet, or windy it might be!

Date:

Astronomy

Apr. 21, 2013 Rise Set
Actual Time 6:51 AM MDT 8:33 PM MDT
Civil Twilight 6:21 AM MDT 9:03 PM MDT
Nautical Twilight 5:44 AM MDT 9:40 PM MDT
Astronomical Twilight 5:05 AM MDT 10:19 PM MDT
Moon 4:17 PM MDT (4/21) 4:22 AM MDT (4/21)
Length of Visible Light 14h 42m
Length of Day
13h 41m
Waxing Gibbous, 80% of the Moon is Illuminated
Apr 21
Waxing Gibbous
Apr 25
Full
May 2
Last Quarter
May 9
New
May 17
First Quarter

Hourly Weather History & Observations

Time (MDT) Temp. Windchill Dew Point Humidity Pressure Visibility Wind Dir Wind Speed Gust Speed Precip Events Conditions
12:58 AM 42.3 °F 40.5 °F 29.5 °F 61% 30.14 in 10.0 mi NNE 3.5 mph - N/A   Clear
1:58 AM 39.9 °F 37.8 °F 29.3 °F 66% 30.13 in 10.0 mi NNW 3.5 mph - N/A   Clear
2:58 AM 38.3 °F - 29.1 °F 70% 30.11 in 10.0 mi North 1.2 mph - N/A   Clear
3:58 AM 36.3 °F - 28.2 °F 72% 30.12 in 10.0 mi Calm Calm - N/A   Scattered Clouds
4:58 AM 36.0 °F - 28.4 °F 74% 30.11 in 10.0 mi Calm Calm - N/A   Overcast
5:58 AM 36.3 °F 32.5 °F 29.1 °F 75% 30.11 in 10.0 mi WSW 4.6 mph - N/A   Overcast
6:58 AM 35.4 °F - 29.1 °F 78% 30.12 in 10.0 mi Calm Calm - N/A   Overcast
7:58 AM 38.5 °F 36.1 °F 29.8 °F 71% 30.13 in 10.0 mi NNW 3.5 mph - N/A   Overcast
8:58 AM 46.6 °F - 32.2 °F 57% 30.13 in 10.0 mi West 6.9 mph - N/A   Mostly Cloudy
9:58 AM 52.9 °F - 31.5 °F 44% 30.14 in 10.0 mi NW 8.1 mph - N/A   Overcast
10:58 AM 56.3 °F - 30.6 °F 38% 30.12 in 10.0 mi NW 9.2 mph - N/A   Scattered Clouds
11:58 AM 59.5 °F - 27.5 °F 30% 30.12 in 10.0 mi NW 11.5 mph 19.6 mph N/A   Mostly Cloudy
12:58 PM 60.8 °F - 27.9 °F 29% 30.08 in 10.0 mi WNW 12.7 mph - N/A   Partly Cloudy
1:58 PM 61.7 °F - 26.8 °F 27% 30.05 in 10.0 mi WNW 13.8 mph - N/A   Partly Cloudy
1:59 PM 62.6 °F - 26.6 °F 26% 30.06 in 10.0 mi WNW 12.7 mph - N/A   Partly Cloudy
2:58 PM 64.2 °F - 26.4 °F 24% 30.04 in 10.0 mi WNW 15.0 mph - N/A   Mostly Cloudy
3:01 PM 64.4 °F - 26.6 °F 24% 30.03 in 10.0 mi NW 11.5 mph - N/A   Mostly Cloudy
3:34 PM 66.2 °F - 26.6 °F 23% 30.02 in 10.0 mi NW 16.1 mph 20.7 mph N/A   Scattered Clouds
3:58 PM 65.7 °F - 26.2 °F 23% 30.01 in 10.0 mi West 12.7 mph 20.7 mph N/A   Partly Cloudy
4:31 PM 66.2 °F - 28.4 °F 24% 30.00 in 10.0 mi NW 15.0 mph 23.0 mph N/A   Overcast
4:58 PM 65.1 °F - 27.0 °F 24% 29.99 in 10.0 mi North 9.2 mph 23.0 mph N/A   Scattered Clouds
5:05 PM 64.4 °F - 26.6 °F 24% 29.99 in 10.0 mi NW 13.8 mph - N/A   Scattered Clouds
5:58 PM 65.8 °F - 27.3 °F 23% 29.96 in 10.0 mi NNW 12.7 mph 17.3 mph N/A   Scattered Clouds
6:58 PM 64.8 °F - 28.0 °F 25% 29.96 in 10.0 mi NW 15.0 mph 21.9 mph N/A   Clear
7:58 PM 62.4 °F - 29.3 °F 29% 29.95 in 10.0 mi NNW 12.7 mph - N/A   Scattered Clouds
8:58 PM 58.3 °F - 29.7 °F 34% 29.97 in 10.0 mi NNW 13.8 mph - N/A   Clear
11:58 PM 52.3 °F - 30.7 °F 44% 30.01 in 10.0 mi NW 20.7 mph - N/A   Scattered Clouds